[[{"header":{"parameterUnit":"m.s-1","parameterCategory":1,"la1":30.2991,"la2":30.254,"lo1":-89.0895,"lo2":-89.0444,"dy":0.0017,"dx":0.0017,"nx":28,"ny":28,"refTime":"2025-07-30T03:00:00:Z","depth":0,"parameterNumber":2,"parameterNumberName":"U-component_of_WINDS"},"data":[0,0,0,0,0,0,0,0,0,0,0,0,0,0,0,0,0,0,0,0,0,0,0,0,0,0,0,0,0,0,0,0,0,0,0,0,0,0,0,0,0,0,0,0,0,0,0,0,0,0,0,0,0,0,0,0,0,0,3.4112,3.4113,0,3.4211,3.4212,3.4213,3.4161,3.4158,3.4155,3.4153,3.426,3.4265,3.4271,0,0,0,0,0,0,0,0,0,0,0,0,0,3.3882,3.3886,3.4112,3.4113,3.4114,3.4211,3.4212,3.4214,3.4161,3.4158,3.4155,3.4152,3.4258,3.4265,3.4271,0,0,0,0,0,0,0,0,0,0,0,0,0,3.3982,3.3888,3.4112,3.41,3.41,3.4211,3.4212,3.4214,3.4162,3.4158,3.4154,3.415,3.4256,3.4264,3.4272,3.4402,0,0,3.4296,3.43,0,0,0,0,0,0,0,0,3.3976,3.399,3.41,3.4101,3.4101,3.4169,3.417,3.4277,3.4163,3.4138,3.4153,3.4148,3.4234,3.4243,3.4271,3.4407,3.4412,3.4297,3.4302,3.4306,3.4308,0,0,0,0,0,0,0,3.3969,3.3986,3.4151,3.4102,3.4102,3.4091,3.4101,3.419,3.4208,3.414,3.4137,3.4149,3.4233,3.4263,3.4273,3.4413,3.4297,3.4304,3.4309,3.4312,3.4662,3.4666,0,0,0,0,0,0,3.3962,3.398,3.4148,3.4154,3.4027,3.4098,3.4109,3.4152,3.4206,3.4211,3.4152,3.4146,3.4251,3.4264,3.4276,3.4433,3.4305,3.4313,3.4318,3.4658,3.4663,3.4668,0,0,0,0,0,0,3.3958,3.3978,3.4144,3.4066,3.4087,3.4107,3.4155,3.4156,3.4186,3.4215,3.4219,3.418,3.4249,3.4265,3.4371,3.4436,3.4317,3.4324,3.4652,3.4659,3.4666,3.4747,0,0,0,0,0,0,3.3951,3.3976,3.4025,3.4068,3.4091,3.4236,3.4158,3.416,3.4199,3.4192,3.4242,3.4246,3.4247,3.4359,3.4379,3.4445,3.433,3.4647,3.4656,3.4663,3.4738,3.4755,3.477,0,0,0,0,0,3.3943,3.4045,3.4028,3.4048,3.4152,3.4239,3.4253,3.425,3.4204,3.4254,3.4273,3.4245,3.4425,3.4371,3.4392,3.4461,3.4643,3.4653,3.4663,3.4731,3.4752,3.4769,0,0,0,0,0,0,3.4011,3.405,3.4032,3.415,3.4191,3.423,3.4293,3.4272,3.4329,3.432,3.4315,3.4327,3.4437,3.446,3.4398,3.4591,3.4527,3.4542,3.4572,3.4592,3.4607,3.46,3.4337,0,0,0,0,0,3.4039,3.4106,3.4137,3.4239,3.426,3.4273,3.4311,3.4305,3.4349,3.4367,3.4393,3.4439,3.4505,3.455,3.4613,3.4741,3.4752,3.4799,3.4815,3.4828,3.4841,3.4911,3.4933,3.4701,3.4701,3.4701,0,0,3.41,3.4129,3.4172,3.4253,3.4284,3.4355,3.4288,3.4366,3.4418,3.4379,3.448,3.4502,3.4552,3.4669,3.4722,3.4692,3.4907,3.4841,3.4851,3.4857,3.4924,3.4946,3.4965,3.4708,3.4707,3.4706,0,0,3.4245,3.4273,3.4361,3.4394,3.4442,3.4449,3.4471,3.4513,3.4525,3.4626,3.4598,3.4661,3.4776,3.4813,3.4847,3.5006,3.4983,3.5027,3.511,3.5178,3.5197,3.5213,3.527,3.5291,3.504,3.504,3.504,0,3.4314,3.4417,3.4409,3.4489,3.4526,3.4491,3.4581,3.4614,3.4681,3.4708,3.4672,3.4815,3.4847,3.4973,3.5011,3.504,3.5065,3.5022,3.5194,3.521,3.5225,3.528,3.5302,3.5045,3.5045,3.5044,3.5044,0,3.45,3.4572,3.4638,3.4701,3.4746,3.483,3.4836,3.4883,3.4872,3.4885,3.4989,3.5025,3.5095,3.5124,3.5116,3.5249,3.5229,3.5194,3.513,3.5253,3.5304,3.5325,3.5053,3.5051,3.5049,3.5048,0,0,3.4692,3.4749,3.4773,3.4802,3.4852,3.4909,3.4992,3.5058,3.5098,3.5146,3.5217,3.5314,3.5282,3.5321,3.5316,3.5376,3.5501,3.5334,3.5335,3.5364,3.5651,3.5677,3.5702,3.5485,3.5489,3.5492,3.5647,0,3.4841,3.4984,3.4979,3.5114,3.5181,3.5149,3.5222,3.5262,3.5275,3.5336,3.5351,3.5421,3.5373,3.5396,3.5453,3.5473,3.5558,3.5462,3.5552,3.5555,3.5541,3.5728,3.5757,3.5901,3.5667,3.567,3.5673,0,3.5034,3.5086,3.5226,3.5267,3.5295,3.536,3.5421,3.5478,3.5523,3.5529,3.5571,3.5557,3.5643,3.5577,3.5696,3.563,3.5667,3.5682,3.5688,3.5697,3.5622,3.5743,3.5947,3.5969,3.5704,3.5702,3.5699,0,3.516,3.5266,3.5363,3.5389,3.5438,3.5485,3.5508,3.5548,3.5589,3.5642,3.5669,3.5732,3.5768,3.5818,3.5822,3.5773,3.5943,3.5876,3.5951,3.5951,3.5989,3.5987,3.6203,3.6012,3.6012,3.6011,3.6011,0,3.5328,3.5415,3.5421,3.5481,3.5578,3.5573,3.567,3.5689,3.5725,3.579,3.5767,3.5828,3.5829,3.5893,3.5897,3.5995,3.6012,3.602,3.602,3.6022,3.6021,3.6047,3.6037,3.6017,3.6016,3.6014,3.6013,0,3.5486,3.5492,3.5597,3.5635,3.5646,3.5717,3.575,3.5808,3.5819,3.5901,3.592,3.5938,3.6011,3.602,3.6106,3.6109,3.6228,3.6217,3.6212,3.6211,3.6285,3.6279,3.6526,3.6558,3.6346,3.6348,3.6349,0,3.5592,3.5658,3.5703,3.5743,3.5768,3.5835,3.5875,3.5873,3.5916,3.5972,3.6024,3.6094,3.6151,3.6269,3.6292,3.6357,3.6349,3.6431,3.6358,3.6359,3.6351,3.6347,3.6354,3.6445,3.6447,3.6449,3.6451,0,3.5781,3.5781,3.5839,3.59,3.5948,3.5996,3.604,3.6076,3.6079,3.6129,3.6203,3.6246,3.6333,3.6404,3.6469,3.6494,3.6474,3.6473,3.6494,3.6497,3.6492,3.6496,3.6251,3.6468,3.6466,3.6465,3.6464,3.6463,3.5917,3.5974,3.6014,3.6081,3.6113,3.6156,3.6212,3.6229,3.629,3.6359,3.6355,3.6436,3.648,3.6564,3.6595,3.6659,3.6633,3.6663,3.6671,3.6678,3.6686,3.6481,3.6671,3.6671,3.667,3.667,3.667,0,3.6105,3.6129,3.619,3.6252,3.6304,3.6278,3.6326,3.6372,3.6444,3.6485,3.6541,3.6626,3.6694,3.6721,3.6789,3.6835,3.6828,3.6853,3.685,3.6857,3.6706,3.6681,3.6858,3.6858,3.6858,3.6858,3.6858,3.6858,3.6209,3.6305,3.631,3.6422,3.6446,3.6524,3.6554,3.6593,3.6626,3.6722,3.6778,3.6794,3.683,3.69,3.6962,3.6969,3.6995,3.7025,3.7027,3.6886,3.6867,3.6849,3.6826,3.703,3.7031,3.7172,3.7174,3.7175]},{"header":{"parameterUnit":"m.s-1","parameterCategory":1,"la1":30.2991,"la2":30.254,"lo1":-89.0895,"lo2":-89.0444,"dy":0.0017,"dx":0.0017,"nx":28,"ny":28,"refTime":"2025-07-30T03:00:00:Z","depth":0,"parameterNumber":3,"parameterNumberName":"V-component_of_WINDS"},"data":[0,0,0,0,0,0,0,0,0,0,0,0,0,0,0,0,0,0,0,0,0,0,0,0,0,0,0,0,0,0,0,0,0,0,0,0,0,0,0,0,0,0,0,0,0,0,0,0,0,0,0,0,0,0,0,0,0,0,2.0408,2.0409,0,2.0473,2.0474,2.0475,2.0473,2.0472,2.0471,2.047,2.0536,2.0538,2.0541,0,0,0,0,0,0,0,0,0,0,0,0,0,2.028,2.0282,2.0408,2.0409,2.041,2.0473,2.0474,2.0475,2.0473,2.0472,2.0471,2.047,2.0535,2.0538,2.0541,0,0,0,0,0,0,0,0,0,0,0,0,0,2.034,2.0283,2.0408,2.0416,2.0418,2.0473,2.0474,2.0475,2.0473,2.0472,2.0471,2.0469,2.0534,2.0538,2.0542,2.0592,0,0,2.0553,2.0555,0,0,0,0,0,0,0,0,2.0336,2.0344,2.0414,2.0416,2.0418,2.0464,2.0453,2.0514,2.0474,2.0452,2.047,2.0469,2.0513,2.0518,2.0534,2.0595,2.0598,2.0554,2.0556,2.0558,2.0559,0,0,0,0,0,0,0,2.0332,2.0341,2.0434,2.0415,2.0417,2.0416,2.0423,2.0465,2.0489,2.0454,2.0454,2.0462,2.0513,2.053,2.0535,2.0599,2.0554,2.0557,2.056,2.0561,2.0706,2.0707,0,0,0,0,0,0,2.0326,2.0338,2.0432,2.0436,2.0373,2.042,2.0428,2.045,2.0489,2.0493,2.0463,2.0461,2.0524,2.0531,2.0537,2.0599,2.0558,2.0561,2.0564,2.0704,2.0706,2.0708,0,0,0,0,0,0,2.0324,2.0335,2.0429,2.0387,2.0399,2.0423,2.0449,2.0452,2.0469,2.0496,2.05,2.0475,2.0523,2.0532,2.0579,2.0601,2.0563,2.0567,2.0702,2.0705,2.0707,2.0723,0,0,0,0,0,0,2.032,2.0334,2.0354,2.0387,2.0401,2.047,2.045,2.0454,2.0475,2.0474,2.0508,2.0513,2.0523,2.0573,2.0583,2.0606,2.057,2.07,2.0703,2.0706,2.0721,2.0726,2.073,0,0,0,0,0,2.0315,2.0355,2.0355,2.0366,2.0427,2.0471,2.0479,2.049,2.0477,2.0497,2.0514,2.0511,2.0597,2.0578,2.0589,2.0614,2.0699,2.0702,2.0706,2.0719,2.0725,2.073,0,0,0,0,0,0,2.0323,2.036,2.036,2.0412,2.0438,2.0471,2.0496,2.0496,2.0527,2.0524,2.0537,2.0544,2.0591,2.0607,2.0585,2.0664,2.0646,2.0652,2.0652,2.0659,2.0663,2.0658,2.0573,0,0,0,0,0,2.0331,2.0365,2.0395,2.0438,2.0451,2.0472,2.0491,2.0498,2.0526,2.0537,2.0558,2.0584,2.0617,2.0639,2.0671,2.0723,2.073,2.0745,2.075,2.0754,2.0758,2.0787,2.0794,2.0719,2.0719,2.0719,0,0,2.0348,2.0372,2.0392,2.044,2.0462,2.0496,2.0481,2.0518,2.0543,2.0542,2.0588,2.0604,2.0634,2.0684,2.0707,2.0699,2.0781,2.0758,2.0761,2.0764,2.0791,2.0798,2.0805,2.0721,2.0721,2.072,0,0,2.0395,2.0417,2.0455,2.0477,2.051,2.0523,2.0532,2.0564,2.0575,2.0621,2.0621,2.0651,2.0708,2.073,2.0748,2.0804,2.0802,2.0814,2.0838,2.0866,2.0872,2.0877,2.0897,2.0903,2.0818,2.0818,2.0818,0,2.0411,2.0463,2.0475,2.0512,2.0533,2.0534,2.0573,2.0593,2.0634,2.0648,2.0639,2.071,2.073,2.0785,2.0799,2.0814,2.0824,2.081,2.087,2.0875,2.088,2.0899,2.0907,2.082,2.0819,2.0819,2.0819,0,2.0481,2.0517,2.0544,2.0584,2.0608,2.0646,2.0663,2.0685,2.069,2.0704,2.075,2.0775,2.0812,2.0826,2.083,2.0881,2.0875,2.0867,2.0849,2.0889,2.0907,2.0914,2.0821,2.0821,2.0821,2.082,0,0,2.0535,2.0582,2.0591,2.061,2.0646,2.0673,2.0711,2.0747,2.0767,2.0795,2.0826,2.0874,2.0868,2.0888,2.0895,2.092,2.0962,2.0909,2.091,2.0918,2.1019,2.1024,2.1033,2.0961,2.0962,2.0963,2.1017,0,2.0586,2.0653,2.0665,2.0723,2.0756,2.0758,2.0791,2.0816,2.083,2.086,2.0875,2.0909,2.0898,2.091,2.0935,2.0952,2.0982,2.0948,2.099,2.0991,2.0982,2.1042,2.1048,2.1097,2.1024,2.1025,2.1026,0,2.0655,2.0685,2.0747,2.0779,2.0793,2.0822,2.0857,2.0885,2.0914,2.0922,2.0946,2.095,2.0988,2.0969,2.1022,2.0998,2.1016,2.1027,2.1029,2.1033,2.1011,2.1048,2.1113,2.112,2.1037,2.1036,2.1035,0,2.0688,2.0744,2.0789,2.0804,2.0842,2.0863,2.0879,2.0907,2.0928,2.0958,2.0972,2.1005,2.1024,2.105,2.1062,2.1047,2.1114,2.1096,2.1122,2.1122,2.1136,2.1135,2.1205,2.1148,2.1148,2.1147,2.1147,0,2.0743,2.0781,2.0804,2.0831,2.0874,2.0886,2.0928,2.0944,2.0968,2.0998,2.1002,2.103,2.1045,2.1075,2.1085,2.1127,2.1135,2.1143,2.1145,2.1143,2.1142,2.1155,2.1151,2.1149,2.1149,2.1149,2.1148,0,2.0787,2.0804,2.0853,2.0885,2.0894,2.0924,2.0951,2.0977,2.0991,2.1029,2.1039,2.1061,2.1096,2.1112,2.1155,2.1162,2.121,2.121,2.1201,2.1201,2.1227,2.1224,2.1307,2.1319,2.1254,2.1255,2.1255,0,2.0821,2.0851,2.0886,2.0907,2.0924,2.0958,2.0979,2.0993,2.1015,2.105,2.1072,2.1108,2.1137,2.1194,2.1214,2.1247,2.1248,2.1274,2.1253,2.1249,2.1248,2.1246,2.1249,2.1278,2.1279,2.1279,2.128,0,2.088,2.0887,2.0919,2.0954,2.098,2.1007,2.1034,2.1051,2.1069,2.1094,2.1131,2.1153,2.1198,2.1234,2.1268,2.1285,2.1285,2.1287,2.1294,2.1292,2.1285,2.1289,2.1211,2.1285,2.1284,2.1284,2.1283,2.1283,2.092,2.0946,2.0976,2.1011,2.1033,2.1058,2.1084,2.1102,2.1133,2.1171,2.1177,2.1216,2.1244,2.129,2.1308,2.1339,2.1332,2.1344,2.1346,2.1349,2.1351,2.1281,2.1345,2.1345,2.1345,2.1345,2.1345,0,2.0979,2.0998,2.1031,2.1069,2.1096,2.1095,2.1125,2.1147,2.1182,2.1208,2.1237,2.128,2.1314,2.1336,2.1371,2.1391,2.1392,2.14,2.1398,2.1402,2.1355,2.1344,2.1398,2.1398,2.1398,2.1398,2.1398,2.1398,2.1013,2.1057,2.1068,2.1122,2.1141,2.118,2.1197,2.122,2.1241,2.1289,2.1317,2.1332,2.1356,2.1393,2.1424,2.143,2.1442,2.145,2.1455,2.1411,2.1405,2.14,2.139,2.1453,2.1453,2.15,2.1501,2.1501]}]]